Location: Biharia
(46.4333°N, 22.8000°E)
Time: 23:01:30
(UTC+00:00)

FENGYUN 1C DEB - Pass Details

Date: 13 August 2022
Orbit: 796 x 915 km, 98.9° (Epoch: 28 September)

Event Time Altitude Azimuth Distance (km) Brightness Sun altitude
Rises 00:27:22 0° 6° (N) 3,460 ? -23.7°
Reaches altitude 10° 00:30:01 10° 357° (N) 2,498 ? -23.5°
Maximum altitude 00:34:47 31° 297° (WNW) 1,445 ? -23.1°
Enters shadow 00:35:57 28° 274° (W) 1,520 ? -22.9°
